Location: Cheraw
(34.6968°N, 79.8912°W)
Time: 16:01:30
(UTC+00:00)

N. Korean satellite - Visible Passes

Search period start: 16 August 2022 00:00
Search period end: 26 August 2022 00:00
Orbit: 433 x 470 km, 97.3° (Epoch: 15 August)

Date Brightness Start Highest point End Pass type
(mag) Time Alt. Az. Time Alt. Az. Time Alt. Az.
17 Aug 9.5 09:40:30 10° NE 09:42:41 16° E 09:44:51 10° SE visible
19 Aug 8.4 10:03:11 10° NNE 10:06:22 32° E 10:09:32 10° SSE visible
20 Aug 9.9 09:30:36 10° ENE 09:31:35 11° E 09:32:33 10° ESE visible
22 Aug 9.1 09:52:21 10° NE 09:55:09 22° E 09:57:56 10° SSE visible
24 Aug 7.5 10:15:11 10° NNE 10:18:34 49° E 10:21:55 10° S visible
25 Aug 9.5 09:41:32 10° NE 09:43:43 16° E 09:45:53 10° SE visible
